DW7589 Weather Reports


time (UTC)temp
C
wind
direction
speed
KPH
gust
KPH
rain 1hr
cm
rain 24hr
cm
rain mn
cm
humidity
%
barometer
mb
20260904003239 28 153 4.8 12.9 0.00 0.00 0.00 76 1011.2
20260904002740 28 151 6.4 12.9 0.00 0.00 0.00 75 1011.3
20260904002241 28 152 8.0 14.5 0.00 0.00 0.00 74 1011.2
20260904001741 28 153 8.0 16.1 0.00 0.00 0.00 74 1011.2
20260904001240 28 155 8.0 16.1 0.00 0.00 0.00 73 1011.1
20260904000241 29 153 8.0 14.5 0.00 0.00 0.00 71 1011.1
20260903235740 29 151 9.7 16.1 0.00 0.00 0.00 71 1011.1
20260903235239 29 151 9.7 16.1 0.00 0.00 0.00 70 1011.0
20260903234740 30 152 8.0 14.5 0.00 0.00 0.00 69 1011.0
20260903234240 30 154 8.0 16.1 0.00 0.00 0.00 68 1011.1
20260903233740 30 152 9.7 16.1 0.00 0.00 0.00 67 1011.0
20260903233241 30 152 9.7 17.7 0.00 0.00 0.00 68 1011.0
20260903232242 30 152 11.3 16.1 0.00 0.00 0.00 66 1010.9
20260903231740 30 149 9.7 16.1 0.00 0.00 0.00 64 1011.0
20260903231240 30 145 9.7 14.5 0.00 0.00 0.00 65 1010.8
20260903230739 30 142 8.0 12.9 0.00 0.00 0.00 64 1010.8
20260903225741 31 141 8.0 14.5 0.00 0.00 0.00 63 1010.8
20260903225239 31 139 9.7 16.1 0.00 0.00 0.00 63 1010.8
20260903224740 31 145 9.7 16.1 0.00 0.00 0.00 62 1010.7
20260903224240 30 151 9.7 16.1 0.00 0.00 0.00 63 1010.7
20260903223740 30 146 9.7 14.5 0.00 0.00 0.00 63 1010.7
20260903223240 30 144 8.0 14.5 0.00 0.00 0.00 64 1010.7
20260903222740 30 148 8.0 14.5 0.00 0.00 0.00 65 1010.7
20260903222240 30 150 8.0 14.5 0.00 0.00 0.00 66 1010.8
20260903221740 30 145 8.0 14.5 0.00 0.00 0.00 67 1010.7
20260903221240 30 142 9.7 16.1 0.00 0.00 0.00 68 1010.8
20260903220740 30 146 8.0 16.1 0.00 0.00 0.00 68 1010.8
20260903220241 30 150 8.0 16.1 0.00 0.00 0.00 67 1010.8
20260903215739 30 145 8.0 16.1 0.00 0.00 0.00 67 1010.8
20260903215240 31 144 8.0 16.1 0.00 0.00 0.00 66 1010.7
20260903214740 31 150 8.0 16.1 0.00 0.00 0.00 66 1010.8
20260903214241 31 152 6.4 12.9 0.00 0.00 0.00 64 1010.7
20260903213740 32 152 6.4 12.9 0.00 0.00 0.00 63 1010.7
20260903213239 32 151 8.0 16.1 0.00 0.00 0.00 62 1010.6
20260903212742 32 151 8.0 16.1 0.00 0.00 0.00 61 1010.8
20260903212239 32 147 8.0 16.1 0.00 0.00 0.00 61 1010.8
20260903210740 32 156 6.4 12.9 0.00 0.00 0.00 60 1010.8
20260903210240 32 159 6.4 14.5 0.00 0.00 0.00 60 1010.9
20260903205740 32 160 6.4 14.5 0.00 0.00 0.00 61 1010.8
20260903205240 32 161 6.4 14.5 0.00 0.00 0.00 62 1011.0
20260903204741 32 165 6.4 14.5 0.00 0.00 0.00 62 1011.0
20260903203740 32 160 6.4 16.1 0.00 0.00 0.00 62 1011.3
20260903203240 32 156 8.0 16.1 0.00 0.00 0.00 63 1011.3
20260903202741 32 160 6.4 17.7 0.00 0.00 0.00 63 1011.4
20260903202241 32 169 6.4 17.7 0.00 0.00 0.00 63 1011.5
20260903201740 32 162 6.4 14.5 0.00 0.00 0.00 63 1011.5
20260903201241 32 159 6.4 14.5 0.00 0.00 0.00 63 1011.6
20260903200740 32 164 6.4 14.5 0.00 0.00 0.00 63 1011.6
20260903200240 32 166 6.4 11.3 0.00 0.00 0.00 62 1011.7
20260903195740 32 168 6.4 16.1 0.00 0.00 0.00 62 1011.7
20260903195241 32 164 8.0 16.1 0.00 0.00 0.00 64 1011.7
20260903194740 32 157 8.0 16.1 0.00 0.00 0.00 64 1011.8
20260903194240 32 155 6.4 14.5 0.00 0.00 0.00 65 1011.9
20260903193741 31 153 8.0 14.5 0.00 0.00 0.00 66 1012.0
20260903193240 31 154 6.4 14.5 0.00 0.00 0.00 67 1012.0
20260903192740 31 149 8.0 14.5 0.00 0.00 0.00 68 1012.2
20260903192242 31 148 8.0 14.5 0.00 0.00 0.00 70 1012.2
20260903191740 31 155 8.0 14.5 0.00 0.00 0.00 69 1012.4
20260903191240 31 156 8.0 16.1 0.00 0.00 0.00 71 1012.5
20260903190740 30 152 8.0 17.7 0.00 0.00 0.00 72 1012.7
20260903190240 30 151 8.0 17.7 0.00 0.00 0.00 74 1012.9
20260903185740 30 151 8.0 17.7 0.00 0.00 0.00 74 1012.9
20260903184240 28 148 8.0 14.5 0.00 0.00 0.00 77 1013.3
20260903183740 28 150 8.0 16.1 0.00 0.00 0.00 78 1013.3
20260903183240 28 150 9.7 16.1 0.00 0.00 0.00 79 1013.3
20260903182740 28 153 9.7 17.7 0.00 0.00 0.00 79 1013.5
20260903182241 28 150 9.7 17.7 0.00 0.00 0.00 78 1013.5
20260903181241 29 155 8.0 14.5 0.00 0.00 0.00 77 1013.6
20260903180741 28 157 9.7 16.1 0.00 0.00 0.00 78 1013.7
20260903180240 28 153 9.7 16.1 0.00 0.00 0.00 78 1013.8
20260903175740 29 147 9.7 17.7 0.00 0.00 0.00 77 1013.9
20260903175242 29 150 11.3 17.7 0.00 0.00 0.00 77 1013.9
20260903174741 30 156 11.3 19.3 0.00 0.00 0.00 77 1014.0
20260903174240 30 153 9.7 19.3 0.00 0.00 0.00 76 1014.0
20260903173740 29 143 8.0 14.5 0.00 0.00 0.00 78 1014.1
20260903173240 28 138 8.0 12.9 0.00 0.00 0.00 80 1014.3
20260903172240 28 143 8.0 14.5 0.00 0.00 0.00 81 1014.4
20260903171740 28 143 8.0 14.5 0.00 0.00 0.00 81 1014.4
20260903171240 28 146 8.0 14.5 0.00 0.00 0.00 81 1014.5
20260903170740 28 148 8.0 14.5 0.00 0.00 0.00 80 1014.5
20260903170241 28 142 8.0 19.3 0.00 0.00 0.00 80 1014.5
20260903165740 28 144 8.0 19.3 0.00 0.00 0.00 79 1014.4
20260903165241 28 151 8.0 16.1 0.00 0.00 0.00 80 1014.4
20260903164240 28 152 8.0 16.1 0.00 0.00 0.00 79 1014.4
20260903163741 28 151 8.0 16.1 0.00 0.00 0.00 79 1014.4
20260903162741 28 150 6.4 16.1 0.00 0.00 0.00 79 1014.4
20260903162240 28 147 6.4 14.5 0.00 0.00 0.00 80 1014.3
20260903161240 28 147 6.4 12.9 0.00 0.00 0.00 80 1014.2
20260903160740 28 148 6.4 12.9 0.00 0.00 0.00 81 1014.2
20260903160241 27 151 6.4 12.9 0.00 0.00 0.00 81 1014.1
20260903155740 28 156 4.8 12.9 0.00 0.00 0.00 81 1014.0
20260903155240 28 152 6.4 14.5 0.00 0.00 0.00 81 1014.0
20260903154740 28 151 6.4 14.5 0.00 0.00 0.00 81 1013.9
20260903154241 27 154 6.4 12.9 0.00 0.00 0.00 81 1014.0
20260903153241 27 152 6.4 12.9 0.00 0.00 0.00 82 1013.8
20260903152740 27 149 6.4 12.9 0.00 0.00 0.00 82 1013.7
20260903152241 27 148 6.4 14.5 0.00 0.00 0.00 82 1013.7
20260903151740 27 150 6.4 14.5 0.00 0.00 0.00 82 1013.8
20260903151240 27 151 6.4 12.9 0.00 0.00 0.00 83 1013.7
20260903150740 27 152 6.4 14.5 0.00 0.00 0.00 83 1013.7
20260903150241 27 151 6.4 14.5 0.00 0.00 0.00 83 1013.6
20260903145741 27 151 4.8 11.3 0.00 0.00 0.00 83 1013.5
20260903144740 27 148 3.2 11.3 0.00 0.00 0.00 84 1013.5
20260903144240 27 153 3.2 8.0 0.00 0.00 0.00 83 1013.6
20260903143740 27 153 4.8 9.7 0.00 0.00 0.00 83 1013.6
20260903143241 27 154 4.8 9.7 0.00 0.00 0.00 83 1013.5
20260903142740 27 152 4.8 11.3 0.00 0.00 0.00 83 1013.4
20260903142241 27 150 4.8 11.3 0.00 0.00 0.00 83 1013.3
20260903141740 27 147 4.8 8.0 0.00 0.00 0.00 83 1013.3
20260903141240 27 145 4.8 11.3 0.00 0.00 0.00 83 1013.3
20260903140241 27 143 3.2 8.0 0.00 0.00 0.00 83 1013.4
20260903135740 27 149 3.2 6.4 0.00 0.00 0.00 83 1013.4
20260903135241 27 156 3.2 6.4 0.00 0.00 0.00 83 1013.4
20260903134240 27 144 4.8 8.0 0.00 0.00 0.00 83 1013.3
20260903133241 27 149 3.2 8.0 0.00 0.00 0.00 84 1013.3
20260903132240 26 145 3.2 8.0 0.00 0.00 0.00 84 1013.3
20260903131741 26 150 3.2 9.7 0.00 0.00 0.00 84 1013.2
20260903131240 26 155 3.2 9.7 0.00 0.00 0.00 84 1013.1
20260903130741 26 159 3.2 6.4 0.00 0.00 0.00 84 1013.1
20260903130241 26 159 3.2 6.4 0.00 0.00 0.00 84 1013.0
20260903125240 26 150 3.2 6.4 0.00 0.00 0.00 85 1013.1
20260903124742 26 149 1.6 6.4 0.00 0.00 0.00 85 1013.1
20260903124241 26 148 3.2 4.8 0.00 0.00 0.00 84 1013.1
20260903123741 26 145 3.2 6.4 0.00 0.00 0.00 84 1013.0
20260903123241 26 146 3.2 6.4 0.00 0.00 0.00 84 1012.9
20260903122740 26 149 3.2 6.4 0.00 0.00 0.00 84 1012.8
20260903122241 26 151 3.2 6.4 0.00 0.00 0.00 84 1012.8
20260903121742 26 155 3.2 6.4 0.00 0.00 0.00 83 1012.7
20260903121240 26 158 1.6 6.4 0.00 0.00 0.00 83 1012.7
20260903120740 26 161 1.6 6.4 0.00 0.00 0.00 83 1012.7
20260903120240 26 159 3.2 6.4 0.00 0.00 0.00 83 1012.6
20260903115740 26 163 3.2 6.4 0.00 0.00 0.00 83 1012.7
20260903115241 26 163 3.2 6.4 0.00 0.00 0.00 83 1012.7
20260903114741 26 162 1.6 6.4 0.00 0.00 0.00 83 1012.6
20260903114240 26 162 3.2 8.0 0.00 0.00 0.00 82 1012.6
20260903113740 26 156 3.2 8.0 0.00 0.00 0.00 82 1012.5
20260903112740 26 166 1.6 6.4 0.00 0.00 0.00 82 1012.4
20260903112241 26 165 3.2 9.7 0.00 0.00 0.00 82 1012.3
20260903111741 26 162 3.2 9.7 0.00 0.00 0.00 82 1012.3
20260903111240 26 162 3.2 8.0 0.00 0.00 0.00 82 1012.3
20260903110741 26 162 3.2 8.0 0.00 0.00 0.00 82 1012.2
20260903110241 26 160 3.2 12.9 0.00 0.00 0.00 81 1012.2
20260903105740 26 163 3.2 12.9 0.00 0.00 0.00 81 1012.2
20260903105241 26 169 3.2 6.4 0.00 0.00 0.00 81 1012.2
20260903104741 26 163 3.2 8.0 0.00 0.00 0.00 81 1012.3
20260903103741 26 157 3.2 8.0 0.00 0.00 0.00 81 1012.3
20260903103240 26 153 3.2 8.0 0.00 0.00 0.00 81 1012.3
20260903102240 26 148 3.2 6.4 0.00 0.00 0.00 81 1012.4
20260903101742 26 149 3.2 6.4 0.00 0.00 0.00 81 1012.3
20260903100741 26 158 3.2 8.0 0.00 0.00 0.00 80 1012.3
20260903095742 26 170 1.6 6.4 0.00 0.00 0.00 80 1012.2
20260903095242 26 175 1.6 4.8 0.00 0.00 0.00 80 1012.2
20260903094741 26 174 1.6 6.4 0.00 0.00 0.00 80 1012.2
20260903094241 26 173 3.2 6.4 0.00 0.00 0.00 80 1012.2
20260903093242 26 173 3.2 6.4 0.00 0.00 0.00 80 1012.2
20260903092740 26 171 1.6 8.0 0.00 0.00 0.00 80 1012.2
20260903091740 26 169 1.6 8.0 0.00 0.00 0.00 80 1012.2
20260903091241 26 167 1.6 8.0 0.00 0.00 0.00 79 1012.3
20260903090741 26 158 1.6 6.4 0.00 0.00 0.00 79 1012.5
20260903090241 26 153 3.2 6.4 0.00 0.00 0.00 79 1012.5
20260903085241 26 155 3.2 6.4 0.00 0.00 0.00 79 1012.5
20260903084740 26 163 1.6 6.4 0.00 0.00 0.00 79 1012.4
20260903083740 26 173 1.6 4.8 0.00 0.00 0.00 79 1012.4
20260903083241 26 178 1.6 4.8 0.00 0.00 0.00 79 1012.4
20260903082741 26 179 1.6 3.2 0.00 0.00 0.00 79 1012.4
20260903082241 26 172 1.6 4.8 0.00 0.00 0.00 79 1012.5
20260903081740 26 164 1.6 4.8 0.00 0.00 0.00 79 1012.5
20260903080741 26 166 1.6 8.0 0.00 0.00 0.00 79 1012.6
20260903080241 26 166 1.6 8.0 0.00 0.00 0.00 79 1012.6
20260903075741 26 176 1.6 4.8 0.00 0.00 0.00 79 1012.6
20260903075241 26 171 1.6 6.4 0.00 0.00 0.00 79 1012.6
20260903074741 26 177 1.6 6.4 0.00 0.00 0.00 79 1012.6
20260903074242 26 189 1.6 3.2 0.00 0.00 0.00 79 1012.6
20260903073242 26 162 1.6 4.8 0.00 0.00 0.00 79 1012.6
20260903072740 26 163 1.6 3.2 0.00 0.00 0.00 79 1012.6
20260903072241 26 179 1.6 3.2 0.00 0.00 0.00 78 1012.5
20260903071741 26 176 1.6 3.2 0.00 0.00 0.00 78 1012.6
20260903071241 26 170 1.6 3.2 0.00 0.00 0.00 78 1012.5
20260903070740 26 173 1.6 4.8 0.00 0.00 0.00 78 1012.5
20260903070241 26 177 1.6 6.4 0.00 0.00 0.00 78 1012.5
20260903065741 26 174 1.6 6.4 0.00 0.00 0.00 77 1012.5
20260903064741 26 166 1.6 3.2 0.00 0.00 0.00 77 1012.5
20260903064241 26 169 1.6 3.2 0.00 0.00 0.00 77 1012.6
20260903063740 26 176 1.6 4.8 0.00 0.00 0.00 76 1012.6
20260903062740 27 175 1.6 4.8 0.00 0.00 0.00 76 1012.7
20260903062241 27 171 1.6 6.4 0.00 0.00 0.00 76 1012.7
20260903061741 27 172 1.6 6.4 0.00 0.00 0.00 75 1012.7
20260903061241 27 176 1.6 3.2 0.00 0.00 0.00 75 1012.7
20260903060741 27 176 1.6 4.8 0.00 0.00 0.00 75 1012.7
20260903060241 27 175 1.6 4.8 0.00 0.00 0.00 75 1012.8
20260903055742 27 0 0.0 3.2 0.00 0.00 0.00 75 1012.8
20260903055240 27 0 0.0 1.6 0.00 0.00 0.00 75 1012.8
20260903054741 27 163 1.6 3.2 0.00 0.00 0.00 75 1012.8
20260903054241 27 162 1.6 3.2 0.00 0.00 0.00 75 1012.8
20260903053741 27 161 1.6 3.2 0.00 0.00 0.00 75 1012.8
20260903053241 27 158 1.6 4.8 0.00 0.00 0.00 74 1012.9
20260903052241 27 155 1.6 6.4 0.00 0.00 0.00 74 1012.8
20260903051741 27 159 1.6 4.8 0.00 0.00 0.00 75 1012.7
20260903051241 27 0 0.0 4.8 0.00 0.00 0.00 76 1012.8
20260903050742 27 0 0.0 3.2 0.00 0.00 0.00 76 1012.8
20260903050241 27 152 1.6 3.2 0.00 0.00 0.00 75 1012.7
20260903045241 27 152 1.6 3.2 0.00 0.00 0.00 75 1012.8
20260903044741 27 152 1.6 3.2 0.00 0.00 0.00 74 1012.8
20260903044241 27 152 1.6 3.2 0.00 0.00 0.00 74 1012.8
20260903043741 27 152 1.6 3.2 0.00 0.00 0.00 74 1012.9
20260903043241 27 146 3.2 6.4 0.00 0.00 0.00 74 1013.0
20260903042742 27 140 3.2 6.4 0.00 0.00 0.00 73 1013.1
20260903041741 27 138 3.2 6.4 0.00 0.00 0.00 73 1013.2
20260903040241 28 152 4.8 9.7 0.00 0.00 0.00 73 1013.3
20260903035741 28 151 4.8 9.7 0.00 0.00 0.00 72 1013.2
20260903035241 28 148 4.8 9.7 0.00 0.00 0.00 71 1013.2
20260903034741 28 149 4.8 8.0 0.00 0.00 0.00 70 1013.3
20260903034242 28 145 3.2 8.0 0.00 0.00 0.00 68 1013.2
20260903033741 28 138 3.2 8.0 0.00 0.00 0.00 68 1013.2
20260903033241 28 136 3.2 8.0 0.00 0.00 0.00 66 1013.1
20260903032742 28 136 3.2 8.0 0.00 0.00 0.00 66 1012.9
20260903032241 28 132 3.2 4.8 0.00 0.00 0.00 65 1012.8
20260903031742 28 126 3.2 4.8 0.00 0.00 0.00 64 1012.9
20260903031241 28 128 3.2 8.0 0.00 0.00 0.00 64 1012.8
20260903030741 29 135 4.8 8.0 0.00 0.00 0.00 64 1012.8
20260903030241 29 137 3.2 6.4 0.00 0.00 0.00 65 1012.9
20260903025742 29 134 3.2 6.4 0.00 0.00 0.00 65 1012.8
20260903025242 29 137 4.8 8.0 0.00 0.00 0.00 65 1012.8
20260903024741 29 139 4.8 8.0 0.00 0.00 0.00 65 1012.7
20260903024242 29 138 3.2 6.4 0.00 0.00 0.00 65 1012.7
20260903023742 30 138 3.2 9.7 0.00 0.00 0.00 64 1012.6
20260903022742 30 145 3.2 6.4 0.00 0.00 0.00 64 1012.4
20260903022241 30 152 3.2 6.4 0.00 0.00 0.00 63 1012.3
20260903021741 30 154 3.2 6.4 0.00 0.00 0.00 63 1012.2
20260903021241 30 144 3.2 6.4 0.00 0.00 0.00 63 1012.1
20260903020741 30 129 3.2 6.4 0.00 0.00 0.00 62 1012.0
20260903020241 30 133 3.2 6.4 0.00 0.00 0.00 62 1011.9
20260903015742 30 132 3.2 6.4 0.00 0.00 0.00 61 1011.7
20260903015241 30 117 3.2 4.8 0.00 0.00 0.00 60 1011.6
20260903014742 30 109 3.2 4.8 0.00 0.00 0.00 60 1011.5
20260903014241 31 112 3.2 9.7 0.00 0.00 0.00 59 1011.4
20260903013741 31 114 3.2 9.7 0.00 0.00 0.00 59 1011.4
20260903013241 31 124 3.2 9.7 0.00 0.00 0.00 59 1011.4
20260903012742 31 129 3.2 8.0 0.00 0.00 0.00 59 1011.4
20260903012241 31 123 3.2 6.4 0.00 0.00 0.00 58 1011.4
20260903011742 31 119 3.2 9.7 0.00 0.00 0.00 58 1011.3
20260903011241 31 120 3.2 9.7 0.00 0.00 0.00 57 1011.3
20260903010741 31 117 3.2 8.0 0.00 0.00 0.00 57 1011.2
20260903010241 31 116 3.2 6.4 0.00 0.00 0.00 56 1011.1
20260903005741 32 122 3.2 6.4 0.00 0.00 0.00 56 1011.1
20260903005242 32 119 3.2 6.4 0.00 0.00 0.00 55 1011.1
20260903004742 32 112 3.2 6.4 0.00 0.00 0.00 54 1011.1
20260903004243 32 113 3.2 8.0 0.00 0.00 0.00 53 1011.1